Weather observations for the past three days for
Cleveland Regional Jetport
Imperial (Metric)
Date Time (edt) Wind (mph) Vis. (mi.) Weather Sky Cond. Temperature (ºF) Relative Humidity Wind Chill (°F) Heat Index (°F) Pressure Precipitation (in)
Air Dwpt 6 hour altimeter (in) sea level (mb) 1 hr 3 hr 6 hr
Max. Min.
25 15:35 Calm 10.00 Partly Cloudy SCT019 80.6 75.2 84% 86 30.13 0.0
25 15:15 NE 5 10.00 Partly Cloudy SCT019 SCT120 80.6 75.2 84% 86 30.14 0.0
25 14:55 Calm 10.00 A Few Clouds FEW016 FEW120 78.8 75.2 89% 82 30.15 0.0
25 14:35 Calm 10.00 Mostly Cloudy SCT016 SCT021 BKN110 78.8 75.2 89% 82 30.15 0.0
25 14:15 Calm 10.00 Mostly Cloudy BKN016 BKN070 78.8 75.2 89% 82 30.15 0.0
25 13:35 N 5 8.00 Mostly Cloudy SCT013 BKN023 BKN033 77 75.2 94% 78 30.17 0.0
25 13:15 Calm 10.00 Overcast OVC014 77 75.2 94% 78 30.18 0.0
25 12:55 Calm 10.00 Overcast BKN014 OVC019 77 75.2 94% 78 30.17 0.0
25 12:35 Calm 10.00 Overcast BKN014 BKN020 OVC037 77 75.2 94% 78 30.18 0.0
25 12:15 Calm 10.00 Overcast BKN012 BKN017 OVC085 77 75.2 94% 78 30.18 0.0
25 11:55 Calm 10.00 Overcast SCT012 BKN018 OVC085 77 75.2 94% 78 30.18 0.0
25 11:35 Calm 10.00 Mostly Cloudy FEW008 SCT012 BKN048 75.2 75.2 100% 73 30.18 0.0
25 11:15 E 3 10.00 Overcast SCT014 BKN020 OVC085 75.2 75.2 100% 73 30.18 0.0
25 10:55 Calm 10.00 Overcast FEW010 BKN016 OVC024 75.2 75.2 100% 73 30.18 0.0
25 10:35 Calm 10.00 Overcast FEW007 SCT010 OVC025 75.2 75.2 100% 73 30.18 0.0
25 10:15 Calm 10.00 Overcast SCT006 BKN013 OVC019 75.2 75.2 100% 73 30.18 0.0
25 09:55 Calm 10.00 Mostly Cloudy SCT006 BKN009 BKN015 73.4 73.4 100% 30.18 0.0
25 09:35 Calm 10.00 Mostly Cloudy BKN007 73.4 73.4 100% 30.17 0.0
25 09:15 Calm 9.00 Overcast OVC007 73.4 73.4 100% 30.18 0.0
25 08:50 Calm 8.00 Overcast OVC007 71.6 71.6 100% 30.18 0.0
25 08:35 Calm 7.00 Overcast OVC006 71.6 71.6 100% 30.18 0.0
25 08:15 Calm 7.00 Mostly Cloudy BKN005 BKN014 BKN036 71.6 71.6 100% 30.17 0.0
25 07:55 Calm 3.00 Fog/Mist FEW039 BKN070 71.6 71.6 100% 30.16 0.0 0.03
25 07:35 Calm 10.00 Overcast FEW032 FEW040 OVC070 71.6 71.6 100% 30.16 0.0
25 07:15 Calm 4.00 Fog/Mist FEW006 SCT032 BKN042 71.6 71.6 100% 30.15 0.0
25 06:50 Calm 7.00 Mostly Cloudy FEW005 SCT031 BKN043 71.6 71.6 100% 30.15 0.0
25 06:35 Calm 2.50 Fog/Mist FEW004 BKN029 OVC065 71.6 71.6 100% 30.15 0.0
25 06:15 Calm 2.50 Fog/Mist FEW004 BKN026 OVC070 71.6 71.6 100% 30.15 0.0
25 05:55 Calm 4.00 Fog/Mist BKN004 BKN026 OVC055 71.6 71.6 100% 30.14 0.0 0.29
25 05:35 Calm 2.50 Fog/Mist FEW004 SCT022 OVC027 71.6 71.6 100% 30.15 0.0
25 05:10 S 5 2.50 Fog/Mist BKN028 BKN033 OVC050 71.6 71.6 100% 30.15 0.0
25 04:55 SW 5 2.50 Fog/Mist BKN029 OVC050 71.6 71.6 100% 30.15 0.0 0.24
25 04:35 Calm 3.00 Fog/Mist FEW002 SCT025 BKN030 71.6 71.6 100% 30.15 0.0
25 04:15 Calm 2.00 Fog/Mist BKN003 BKN024 OVC030 71.6 71.6 100% 30.15 0.0
25 03:55 Calm 1.75 Fog/Mist OVC003 71.6 71.6 100% 30.15 0.0 1.4
25 03:35 Calm 1.50 Fog/Mist OVC003 71.6 71.6 100% 30.16 0.0
25 03:15 Calm 1.00 Fog/Mist OVC003 71.6 71.6 100% 30.16 0.0
25 02:55 Calm 1.25 Fog/Mist OVC003 71.6 71.6 100% 30.17 0.0 0.54
25 02:35 SW 3 1.50 Fog/Mist BKN004 BKN026 OVC039 71.6 71.6 100% 30.17 0.0
25 02:15 Calm 5.00 Fog/Mist FEW005 OVC040 73.4 73.4 100% 30.17 0.0
25 01:55 Calm 9.00 Overcast SCT005 OVC042 73.4 73.4 100% 30.16 0.0 0.1
25 01:35 Calm 6.00 Fog/Mist FEW003 SCT029 OVC045 73.4 73.4 100% 30.17 0.0
25 01:10 Calm 2.50 Fog/Mist FEW003 SCT034 OVC055 73.4 73.4 100% 30.17 0.0
25 00:55 Calm 4.00 Fog/Mist OVC055 73.4 73.4 100% 30.18 0.0 0.02
25 00:35 Calm 7.00 Overcast SCT046 BKN050 OVC060 73.4 73.4 100% 30.18 0.0
25 00:15 Calm 10.00 Overcast BKN034 OVC046 73.4 73.4 100% 30.17 0.0
24 23:55 Calm 10.00 Overcast BKN034 OVC045 73.4 73.4 100% 30.17 0.0
24 23:35 Calm 10.00 Overcast OVC047 73.4 73.4 100% 30.17 0.0
24 23:15 Calm 10.00 Mostly Cloudy FEW031 BKN049 BKN120 73.4 73.4 100% 30.17 0.0
24 22:55 Calm 10.00 Mostly Cloudy FEW030 SCT043 BKN070 73.4 73.4 100% 30.17 0.0
24 22:35 Calm 10.00 Partly Cloudy FEW047 FEW060 SCT075 73.4 73.4 100% 30.17 0.0
24 22:15 Calm 10.00 A Few Clouds FEW039 FEW090 73.4 73.4 100% 30.17 0.0
24 21:55 Calm 10.00 Mostly Cloudy SCT039 BKN046 BKN095 73.4 73.4 100% 30.17 0.0
24 21:35 Calm 10.00 Mostly Cloudy BKN040 BKN060 BKN080 73.4 73.4 100% 30.17 0.0
24 21:15 Calm 10.00 Mostly Cloudy BKN039 BKN090 BKN120 73.4 73.4 100% 30.16 0.0
24 20:55 Vrbl 3 10.00 Overcast BKN040 OVC085 75.2 75.2 100% 73 30.17 0.0
24 20:35 Vrbl 6 10.00 Mostly Cloudy SCT039 BKN085 BKN100 75.2 75.2 100% 73 30.17 0.0
24 20:15 Calm 10.00 Partly Cloudy SCT041 SCT050 SCT110 75.2 75.2 100% 73 30.17 0.0
24 19:55 E 3 10.00 A Few Clouds FEW090 75.2 75.2 100% 73 30.16 0.0
24 19:35 Calm 10.00 Mostly Cloudy SCT055 SCT070 BKN095 75.2 75.2 100% 73 30.16 0.0
24 18:55 Calm 2.00 Fog/Mist SCT031 BKN043 OVC065 77 75.2 94% 78 30.15 0.0 0.01
24 18:35 SW 8 10.00 Mostly Cloudy SCT043 BKN050 BKN070 80.6 75.2 84% 86 30.15 0.0
24 18:15 S 5 10.00 Partly Cloudy FEW050 SCT085 82.4 75.2 79% 89 30.14 0.0
24 17:50 S 5 10.00 Mostly Cloudy FEW040 SCT090 BKN110 82.4 75.2 79% 89 30.14 0.0
24 17:35 S 5 10.00 Mostly Cloudy BKN040 BKN050 84.2 75.2 74% 92 30.14 0.0
24 17:15 Calm 10.00 Mostly Cloudy SCT039 SCT045 BKN050 84.2 73.4 70% 91 30.14 0.0
24 16:55 Vrbl 6 10.00 Partly Cloudy FEW038 SCT047 SCT090 86 71.6 62% 92 30.14 0.0
24 16:35 Vrbl 3 10.00 Partly Cloudy SCT035 SCT046 SCT090 84.2 71.6 66% 90 30.14 0.0
24 16:15 Calm 10.00 Mostly Cloudy BKN035 BKN046 BKN090 84.2 73.4 70% 91 30.15 0.0
24 15:55 Vrbl 6 10.00 Overcast SCT031 BKN038 OVC090 84.2 73.4 70% 91 30.15 0.0
24 15:35 Calm 10.00 Overcast SCT030 BKN038 OVC095 84.2 73.4 70% 91 30.16 0.0
24 15:15 Vrbl 6 10.00 Mostly Cloudy BKN029 BKN036 BKN095 84.2 75.2 74% 92 30.17 0.0
24 14:55 SW 8 10.00 Partly Cloudy SCT028 SCT095 84.2 75.2 74% 92 30.17 0.0
24 14:35 Vrbl 7 10.00 A Few Clouds FEW031 FEW100 82.4 75.2 79% 89 30.17 0.0
24 14:15 S 5 10.00 Partly Cloudy FEW038 SCT100 82.4 75.2 79% 89 30.18 0.0
24 13:50 Vrbl 3 10.00 Mostly Cloudy FEW023 SCT032 BKN037 82.4 73.4 74% 88 30.19 0.0
24 13:35 SW 7 10.00 Mostly Cloudy FEW023 SCT031 BKN037 82.4 75.2 79% 89 30.19 0.0
24 13:15 Vrbl 6 10.00 Partly Cloudy FEW021 FEW027 SCT035 82.4 75.2 79% 89 30.19 0.0
24 12:55 S 7 10.00 Overcast BKN019 BKN025 OVC034 80.6 75.2 84% 86 30.2 0.0
24 12:35 Calm 10.00 Mostly Cloudy BKN019 BKN024 80.6 75.2 84% 86 30.2 0.0
24 12:15 Vrbl 3 10.00 Mostly Cloudy BKN017 BKN110 78.8 75.2 89% 82 30.2 0.0
24 11:50 Calm 10.00 Mostly Cloudy SCT015 BKN110 77 75.2 94% 78 30.21 0.0
24 11:35 Calm 10.00 Mostly Cloudy BKN015 BKN110 77 75.2 94% 78 30.21 0.0
24 11:15 S 3 10.00 Mostly Cloudy BKN013 BKN110 77 75.2 94% 78 30.21 0.0
24 10:55 S 6 10.00 Mostly Cloudy BKN012 77 75.2 94% 78 30.21 0.0
24 10:35 Calm 10.00 Mostly Cloudy SCT012 BKN110 75.2 75.2 100% 73 30.2 0.0
24 10:15 Calm 10.00 Mostly Cloudy BKN010 75.2 75.2 100% 73 30.2 0.0
24 09:55 S 3 10.00 Mostly Cloudy BKN009 BKN013 75.2 75.2 100% 73 30.2 0.0
24 09:35 S 5 9.00 Partly Cloudy SCT007 75.2 75.2 100% 73 30.2 0.0
24 09:15 Calm 10.00 A Few Clouds FEW007 73.4 73.4 100% 30.19 0.0
24 08:55 S 5 10.00 Mostly Cloudy BKN007 73.4 73.4 100% 30.19 0.0
24 08:35 SW 3 10.00 Mostly Cloudy BKN007 73.4 73.4 100% 30.18 0.0
24 08:15 SW 3 10.00 Partly Cloudy SCT007 73.4 73.4 100% 30.18 0.0
24 07:55 SW 6 10.00 Mostly Cloudy BKN006 73.4 73.4 100% 30.18 0.0
24 07:35 SW 6 9.00 Overcast BKN006 OVC110 73.4 73.4 100% 30.17 0.0
24 07:15 SW 3 10.00 Partly Cloudy SCT006 SCT110 71.6 71.6 100% 30.17 0.0
24 06:55 SW 3 10.00 Partly Cloudy FEW007 FEW036 SCT110 71.6 71.6 100% 30.16 0.0
24 06:35 Calm 10.00 Overcast SCT041 BKN070 OVC110 71.6 71.6 100% 30.16 0.0
24 06:15 Calm 9.00 Overcast FEW010 BKN075 OVC110 71.6 71.6 100% 30.15 0.0
24 05:55 Calm 10.00 Overcast BKN007 BKN047 OVC075 73.4 73.4 100% 30.15 0.0
24 05:35 S 5 10.00 Overcast OVC007 73.4 73.4 100% 30.16 0.0
24 05:15 S 3 10.00 Overcast OVC007 73.4 73.4 100% 30.15 0.0
24 04:55 S 3 10.00 Overcast OVC007 73.4 73.4 100% 30.15 0.0
24 04:35 S 3 10.00 Overcast BKN007 OVC027 73.4 73.4 100% 30.15 0.0
24 04:15 Calm 10.00 Overcast BKN007 OVC024 73.4 73.4 100% 30.14 0.0
24 03:55 Calm 10.00 Overcast FEW007 OVC022 73.4 73.4 100% 30.13 0.0
24 03:35 Calm 10.00 Overcast FEW008 OVC021 73.4 73.4 100% 30.14 0.0
24 03:15 S 6 10.00 Overcast BKN007 BKN011 OVC020 73.4 73.4 100% 30.14 0.0
24 02:55 SW 6 10.00 Overcast BKN008 OVC011 73.4 73.4 100% 30.14 0.0
24 02:35 SW 7 10.00 Overcast OVC007 73.4 73.4 100% 30.14 0.0
24 02:10 SW 7 10.00 Overcast OVC006 73.4 73.4 100% 30.14 0.0
24 01:55 S 5 10.00 Overcast OVC006 73.4 73.4 100% 30.13 0.0
24 01:35 SW 6 9.00 Mostly Cloudy BKN007 BKN024 BKN110 73.4 73.4 100% 30.14 0.0
24 01:15 SW 6 10.00 A Few Clouds FEW110 73.4 73.4 100% 30.14 0.0
24 00:55 Calm 10.00 Fair CLR 73.4 73.4 100% 30.14 0.0
24 00:35 Calm 10.00 A Few Clouds FEW014 73.4 73.4 100% 30.14 0.0
24 00:15 Calm 10.00 Partly Cloudy SCT015 73.4 73.4 100% 30.13 0.0
23 23:55 Calm 10.00 Overcast OVC015 73.4 73.4 100% 30.14 0.0
23 23:35 S 5 10.00 Mostly Cloudy FEW008 BKN015 73.4 73.4 100% 30.13 0.0
23 23:15 S 6 10.00 Mostly Cloudy FEW008 BKN016 73.4 73.4 100% 30.13 0.0
23 22:55 SW 8 10.00 Mostly Cloudy SCT008 BKN017 BKN090 73.4 73.4 100% 30.13 0.0
23 22:35 SW 5 10.00 Mostly Cloudy BKN008 BKN090 73.4 73.4 100% 30.13 0.0
23 22:15 SW 6 G 12 10.00 Partly Cloudy SCT008 73.4 73.4 100% 30.12 0.0
23 21:55 SW 6 10.00 Partly Cloudy SCT008 73.4 73.4 100% 30.12 0.0
23 21:35 SW 5 10.00 A Few Clouds FEW008 FEW100 73.4 73.4 100% 30.12 0.0
23 21:15 Calm 10.00 Mostly Cloudy SCT008 BKN100 75.2 75.2 100% 73 30.11 0.0
23 20:55 Calm 10.00 Mostly Cloudy SCT008 BKN011 BKN095 75.2 75.2 100% 73 30.11 0.0
23 20:35 SW 5 10.00 Mostly Cloudy FEW011 BKN095 75.2 75.2 100% 73 30.11 0.0
23 20:15 S 5 10.00 A Few Clouds FEW100 75.2 75.2 100% 73 30.1 0.0
23 19:55 S 6 10.00 Partly Cloudy FEW100 SCT120 77 75.2 94% 78 30.09 0.0
23 19:35 S 5 10.00 Partly Cloudy FEW075 SCT090 75.2 75.2 100% 73 30.08 0.0
23 19:15 Calm 10.00 Overcast BKN075 OVC090 77 75.2 94% 78 30.08 0.0
23 18:55 Calm 10.00 Mostly Cloudy FEW010 BKN075 BKN090 77 75.2 94% 78 30.08 0.0
23 18:35 SE 5 10.00 Partly Cloudy FEW009 SCT095 77 75.2 94% 78 30.08 0.0
23 18:15 Calm 10.00 Fair CLR 77 75.2 94% 78 30.08 0.0
23 17:55 S 6 10.00 A Few Clouds FEW008 FEW085 FEW110 77 75.2 94% 78 30.08 0.0
23 17:35 S 6 10.00 Partly Cloudy FEW007 FEW095 SCT110 75.2 75.2 100% 73 30.07 0.0
23 17:15 Vrbl 3 10.00 Partly Cloudy FEW008 FEW085 SCT110 77 75.2 94% 78 30.07 0.0
23 16:55 Vrbl 3 10.00 A Few Clouds FEW005 77 75.2 94% 78 30.07 0.0 0.1
23 16:35 Calm 6.00 Fog/Mist FEW005 SCT035 SCT041 73.4 73.4 100% 30.07 0.0
23 16:15 Calm 3.00 Fog/Mist FEW031 BKN037 BKN042 73.4 73.4 100% 30.08 0.0
23 15:55 S 3 4.00 Fog/Mist FEW030 SCT035 SCT043 73.4 73.4 100% 30.09 0.0 0.04
23 15:35 Calm 2.50 Fog/Mist SCT026 SCT043 BKN075 73.4 73.4 100% 30.09 0.0
23 15:15 Calm 10.00 Mostly Cloudy FEW041 SCT060 BKN075 73.4 73.4 100% 30.1 0.0
23 14:55 N 5 10.00 Mostly Cloudy FEW012 SCT024 BKN048 75.2 73.4 94% 74 30.1 0.0
23 14:35 N 9 G 21 10.00 Overcast FEW010 SCT016 OVC055 75.2 75.2 100% 73 30.11 0.0
23 14:15 Vrbl 5 10.00 Mostly Cloudy FEW009 FEW015 BKN060 78.8 77 94% 83 30.11 0.0
23 13:55 SW 6 8.00 Fair CLR 78.8 78.8 100% 83 30.09 0.0 0.11
23 13:35 Vrbl 3 2.00 Fog/Mist FEW025 SCT037 BKN046 77 77 100% 78 30.1 0.0
23 13:15 Calm 4.00 Fog/Mist FEW018 SCT033 SCT044 78.8 77 94% 83 30.1 0.0
23 12:55 Calm 4.00 Fog/Mist FEW014 SCT019 SCT027 78.8 77 94% 83 30.1 0.0 0.02
23 12:35 Calm 7.00 Mostly Cloudy SCT014 BKN022 BKN027 78.8 77 94% 83 30.1 0.0
23 12:15 Calm 10.00 Overcast BKN014 BKN020 OVC027 78.8 77 94% 83 30.1 0.0
23 11:55 Calm 10.00 Mostly Cloudy BKN015 BKN020 BKN026 78.8 77 94% 83 30.11 0.0
23 11:35 Calm 10.00 Mostly Cloudy SCT014 BKN020 78.8 77 94% 83 30.11 0.0
23 11:15 Calm 10.00 Mostly Cloudy BKN014 78.8 77 94% 83 30.1 0.0
23 10:55 Calm 10.00 Partly Cloudy SCT012 SCT019 78.8 77 94% 83 30.1 0.0
23 10:35 Calm 10.00 Mostly Cloudy BKN012 BKN019 77 77 100% 78 30.1 0.0
23 10:15 Calm 10.00 Mostly Cloudy BKN010 BKN120 77 77 100% 78 30.09 0.0
23 09:55 S 5 9.00 Partly Cloudy SCT008 SCT120 77 77 100% 78 30.1 0.0
23 09:35 SW 6 9.00 Mostly Cloudy BKN006 BKN010 75.2 75.2 100% 73 30.1 0.0
23 09:15 Calm 9.00 Mostly Cloudy BKN005 75.2 75.2 100% 73 30.09 0.0
23 08:55 SW 3 9.00 Overcast OVC005 75.2 75.2 100% 73 30.09 0.0
23 08:35 Calm 9.00 Overcast OVC006 75.2 75.2 100% 73 30.08 0.0
23 08:15 Calm 10.00 Overcast BKN006 OVC065 73.4 73.4 100% 30.08 0.0
23 07:50 Calm 9.00 Mostly Cloudy SCT017 SCT065 BKN075 73.4 73.4 100% 30.08 0.0
23 07:35 Calm 9.00 Partly Cloudy SCT017 SCT065 73.4 73.4 100% 30.08 0.0
23 07:15 Calm 9.00 Partly Cloudy SCT065 71.6 71.6 100% 30.07 0.0
23 06:55 SW 3 9.00 Mostly Cloudy SCT065 BKN075 71.6 71.6 100% 30.07 0.0
23 06:35 Calm 6.00 Fog/Mist SCT017 SCT055 BKN070 71.6 71.6 100% 30.06 0.0
23 06:15 Calm 8.00 Overcast BKN017 OVC065 71.6 71.6 100% 30.06 0.0
23 05:55 Calm 8.00 Overcast SCT018 BKN060 OVC070 71.6 71.6 100% 30.06 0.0
23 05:35 Calm 9.00 Overcast OVC018 71.6 71.6 100% 30.06 0.0
23 05:15 Calm 9.00 Overcast BKN018 OVC075 71.6 71.6 100% 30.05 0.0
23 04:55 Calm 9.00 Mostly Cloudy BKN018 BKN050 71.6 71.6 100% 30.04 0.0
23 04:35 Calm 10.00 Partly Cloudy FEW019 FEW028 SCT050 71.6 71.6 100% 30.04 0.0
23 04:15 Calm 10.00 Mostly Cloudy FEW004 BKN027 BKN037 71.6 71.6 100% 30.04 0.0
23 03:55 Calm 10.00 Overcast SCT004 OVC027 73.4 73.4 100% 30.04 0.0
23 03:35 Calm 10.00 Overcast OVC028 73.4 73.4 100% 30.04 0.0
23 03:15 Calm 8.00 Overcast SCT028 BKN039 OVC075 73.4 73.4 100% 30.04 0.0
23 02:55 Calm 8.00 Overcast SCT030 SCT040 OVC065 73.4 73.4 100% 30.03 0.0 0.01
23 02:35 Calm 10.00 Overcast BKN031 BKN040 OVC070 73.4 73.4 100% 30.04 0.0
23 02:15 Calm 10.00 Overcast FEW028 BKN032 OVC042 73.4 73.4 100% 30.04 0.0
23 01:55 Calm 10.00 Overcast SCT003 BKN032 OVC055 71.6 71.6 100% 30.03 0.0 0.34
23 01:35 Calm 1.25 Fog/Mist BKN003 BKN012 OVC031 73.4 73.4 100% 30.04 0.0
23 01:15 Calm 10.00 Overcast SCT027 BKN043 OVC050 73.4 73.4 100% 30.03 0.0
23 00:55 Calm 8.00 Mostly Cloudy FEW004 SCT026 BKN035 73.4 73.4 100% 30.04 0.0 0.03
23 00:35 Calm 6.00 Fog/Mist FEW003 BKN035 OVC049 73.4 73.4 100% 30.04 0.0
23 00:15 Calm 9.00 Overcast BKN037 OVC047 75.2 75.2 100% 73 30.04 0.0
22 23:55 Calm 10.00 Overcast BKN035 BKN040 OVC048 75.2 75.2 100% 73 30.03 0.0
22 23:35 Calm 10.00 Overcast SCT024 BKN032 OVC037 75.2 75.2 100% 73 30.03 0.0
22 23:15 Calm 10.00 Overcast BKN025 OVC033 75.2 75.2 100% 73 30.03 0.0
22 22:55 Calm 10.00 Overcast BKN034 BKN075 OVC095 75.2 75.2 100% 73 30.03 0.0
22 22:35 Calm 10.00 Mostly Cloudy FEW033 SCT047 BKN075 75.2 75.2 100% 73 30.02 0.0
22 22:15 Calm 10.00 Overcast BKN034 BKN044 OVC055 75.2 73.4 94% 74 30.02 0.0
22 21:55 SE 6 10.00 Overcast SCT036 BKN044 OVC085 77 73.4 89% 78 30.02 0.0
22 21:35 Calm 10.00 Overcast SCT038 SCT047 OVC090 77 73.4 89% 78 30 0.0
22 21:15 Vrbl 5 G 13 10.00 Overcast BKN040 BKN047 OVC100 78.8 73.4 84% 82 30 0.0
22 20:55 S 5 10.00 Partly Cloudy SCT042 SCT048 SCT060 78.8 77 94% 83 29.99 0.0
22 20:35 Calm 10.00 A Few Clouds FEW060 78.8 77 94% 83 29.98 0.0
22 20:15 Calm 10.00 A Few Clouds FEW060 80.6 77 89% 87 29.98 0.0
22 19:55 Calm 10.00 Fair CLR 82.4 77 84% 91 29.97 0.0
22 19:35 Calm 10.00 Fair CLR 82.4 77 84% 91 29.97 0.0
22 19:15 Calm 10.00 Fair CLR 84.2 75.2 74% 92 29.96 0.0
22 18:55 Calm 10.00 Partly Cloudy FEW043 SCT050 82.4 75.2 79% 89 29.96 0.0
22 18:35 Calm 10.00 Mostly Cloudy SCT043 BKN050 BKN060 80.6 75.2 84% 86 29.96 0.0
22 18:15 Calm 10.00 Partly Cloudy FEW043 SCT050 SCT060 80.6 75.2 84% 86 29.96 0.0
22 17:55 Calm 10.00 A Few Clouds FEW090 84.2 75.2 74% 92 29.97 0.0
22 17:35 Calm 10.00 Mostly Cloudy SCT040 SCT050 BKN090 84.2 73.4 70% 91 29.96 0.0
22 17:15 S 5 10.00 Mostly Cloudy BKN039 BKN046 86 73.4 66% 93 29.96 0.0
22 16:55 S 5 10.00 Mostly Cloudy SCT038 BKN047 BKN090 86 73.4 66% 93 29.97 0.0
22 16:35 Calm 10.00 Mostly Cloudy BKN036 BKN043 BKN090 86 71.6 62% 92 29.97 0.0
Date Time (edt) Wind (mph) Vis. (mi.) Weather Sky Cond. Air Dwpt Max. Min. Relative Humidity Wind Chill (°F) Heat Index (°F) altimeter (in) sea level (mb) 1 hr 3 hr 6 hr
6 hour
Temperature (ºF) Pressure Precipitation (in)